• In Uzbekistan
  • List of Countries
  • For 7 days
  • Water Temperature
  • Weather Map
  • Weather Widgets
  • user-avatar
    Login

    Hourly Weather Durres

    Today, 19 February, Wednesday

    Time Temperature Precipitation Wind Pressure Humidity
    00:00 +9°C° 0 mm 2 mps 764 mmHg 86%
    01:00 +9°C° 0 mm 2 mps 764 mmHg 86%
    02:00 +9°C° 0 mm 2 mps 763 mmHg 87%
    03:00 +9°C° 0 mm 2 mps 763 mmHg 87%
    04:00 +8°C° 0 mm 2 mps 763 mmHg 87%
    05:00 +9°C° 0 mm 2 mps 763 mmHg 86%
    06:00 +9°C° 0 mm 2 mps 763 mmHg 85%
    07:00 +9°C° 0 mm 2 mps 763 mmHg 84%
    08:00 +10°C° 0 mm 2 mps 763 mmHg 79%
    09:00 +13°C° 0 mm 2 mps 763 mmHg 74%
    10:00 +14°C° 0 mm 2 mps 763 mmHg 69%
    11:00 +15°C° 0 mm 2 mps 762 mmHg 67%
    12:00 +16°C° 0 mm 2 mps 762 mmHg 65%
    13:00 +16°C° 0 mm 1 mps 761 mmHg 62%
    14:00 +16°C° 0 mm 1 mps 761 mmHg 66%
    15:00 +16°C° 0 mm 1 mps 760 mmHg 69%
    16:00 +16°C° 0 mm 1 mps 760 mmHg 72%
    17:00 +14°C° 0.1 mm 1 mps 760 mmHg 78%
    18:00 +13°C° 0.1 mm 1 mps 760 mmHg 84%
    19:00 +12°C° 0.1 mm 1 mps 760 mmHg 89%
    20:00 +12°C° 0.2 mm 1 mps 760 mmHg 90%
    21:00 +12°C° 0.2 mm 1 mps 760 mmHg 91%
    22:00 +11°C° 0.2 mm 1 mps 759 mmHg 92%
    23:00 +10°C° 0.7 mm 2 mps 759 mmHg 92%

    Tomorrow, 20 February, Thursday

    Time Temperature Precipitation Wind Pressure Humidity
    00:00 +10°C° 0.7 mm 3 mps 759 mmHg 92%
    01:00 +9°C° 0.7 mm 5 mps 759 mmHg 92%
    02:00 +10°C° 0.9 mm 4 mps 759 mmHg 93%
    03:00 +10°C° 0.9 mm 4 mps 759 mmHg 93%
    04:00 +10°C° 0.9 mm 3 mps 758 mmHg 94%
    05:00 +10°C° 0.6 mm 4 mps 758 mmHg 92%
    06:00 +10°C° 0.6 mm 4 mps 759 mmHg 90%
    07:00 +8°C° 0.6 mm 5 mps 759 mmHg 88%
    08:00 +9°C° 0.5 mm 6 mps 759 mmHg 82%
    09:00 +10°C° 0.5 mm 7 mps 759 mmHg 76%
    10:00 +11°C° 0.5 mm 8 mps 760 mmHg 70%
    11:00 +12°C° 0 mm 8 mps 760 mmHg 65%
    12:00 +13°C° 0 mm 9 mps 760 mmHg 60%
    13:00 +13°C° 0 mm 10 mps 760 mmHg 55%
    14:00 +13°C° 0 mm 10 mps 760 mmHg 55%
    15:00 +13°C° 0 mm 9 mps 760 mmHg 55%
    16:00 +13°C° 0 mm 9 mps 760 mmHg 54%
    17:00 +11°C° 0 mm 9 mps 761 mmHg 58%
    18:00 +10°C° 0 mm 9 mps 762 mmHg 62%
    19:00 +7°C° 0 mm 9 mps 762 mmHg 66%
    20:00 +7°C° 0 mm 9 mps 762 mmHg 67%
    21:00 +6°C° 0 mm 9 mps 763 mmHg 67%
    22:00 +6°C° 0 mm 8 mps 763 mmHg 68%
    23:00 +6°C° 0 mm 8 mps 763 mmHg 68%

    Day after tomorrow, 21 February, Friday

    Time Temperature Precipitation Wind Pressure Humidity
    00:00 +5°C° 0 mm 8 mps 764 mmHg 68%
    01:00 +5°C° 0 mm 7 mps 764 mmHg 68%
    02:00 +4°C° 0 mm 7 mps 764 mmHg 68%
    03:00 +4°C° 0 mm 7 mps 764 mmHg 68%
    04:00 +4°C° 0 mm 6 mps 764 mmHg 68%
    05:00 +4°C° 0 mm 6 mps 764 mmHg 68%
    06:00 +3°C° 0 mm 6 mps 765 mmHg 68%
    07:00 +3°C° 0 mm 5 mps 765 mmHg 68%
    14:00 +13°C° 0 mm 4 mps 765 mmHg 40%
    15:00 +13°C° 0 mm 4 mps 765 mmHg 42%
    16:00 +13°C° 0 mm 5 mps 764 mmHg 46%
    17:00 +10°C° 0 mm 5 mps 765 mmHg 49%
    18:00 +9°C° 0 mm 5 mps 765 mmHg 52%
    19:00 +8°C° 0 mm 6 mps 766 mmHg 55%
    20:00 +8°C° 0 mm 6 mps 766 mmHg 55%
    21:00 +7°C° 0 mm 6 mps 767 mmHg 55%
    22:00 +7°C° 0 mm 5 mps 767 mmHg 55%
    23:00 +7°C° 0 mm 5 mps 768 mmHg 54%

    22 February, Saturday

    Time Temperature Precipitation Wind Pressure Humidity
    00:00 +6°C° 0 mm 5 mps 768 mmHg 53%
    01:00 +6°C° 0 mm 5 mps 768 mmHg 52%
    02:00 +6°C° 0 mm 5 mps 768 mmHg 53%
    03:00 +5°C° 0 mm 5 mps 768 mmHg 53%
    04:00 +4°C° 0 mm 6 mps 768 mmHg 53%
    05:00 +4°C° 0 mm 6 mps 768 mmHg 55%
    06:00 +4°C° 0 mm 6 mps 769 mmHg 57%
    07:00 +4°C° 0 mm 6 mps 769 mmHg 59%
    08:00 +7°C° 0 mm 6 mps 769 mmHg 55%
    09:00 +9°C° 0 mm 7 mps 770 mmHg 50%
    10:00 +11°C° 0 mm 7 mps 770 mmHg 46%
    11:00 +11°C° 0 mm 7 mps 770 mmHg 41%
    12:00 +12°C° 0 mm 8 mps 770 mmHg 37%
    13:00 +13°C° 0 mm 8 mps 770 mmHg 32%
    14:00 +13°C° 0 mm 9 mps 770 mmHg 34%
    15:00 +12°C° 0 mm 9 mps 769 mmHg 36%
    16:00 +12°C° 0 mm 10 mps 769 mmHg 39%
    17:00 +10°C° 0 mm 9 mps 770 mmHg 41%
    18:00 +8°C° 0 mm 9 mps 770 mmHg 44%
    19:00 +6°C° 0 mm 8 mps 771 mmHg 46%
    20:00 +6°C° 0 mm 8 mps 771 mmHg 46%
    21:00 +5°C° 0 mm 7 mps 771 mmHg 47%
    22:00 +5°C° 0 mm 6 mps 772 mmHg 47%
    23:00 +4°C° 0 mm 6 mps 772 mmHg 48%

    23 February, Sunday

    Time Temperature Precipitation Wind Pressure Humidity
    00:00 +5°C° 0 mm 5 mps 772 mmHg 48%
    01:00 +4°C° 0 mm 4 mps 772 mmHg 49%
    02:00 +4°C° 0 mm 4 mps 772 mmHg 49%
    03:00 +4°C° 0 mm 4 mps 772 mmHg 49%
    04:00 +4°C° 0 mm 3 mps 771 mmHg 50%
    05:00 +4°C° 0 mm 3 mps 771 mmHg 50%
    06:00 +4°C° 0 mm 3 mps 771 mmHg 51%
    07:00 +5°C° 0 mm 2 mps 771 mmHg 52%
    08:00 +7°C° 0 mm 2 mps 771 mmHg 47%
    09:00 +9°C° 0 mm 2 mps 771 mmHg 42%
    10:00 +10°C° 0 mm 2 mps 771 mmHg 37%
    11:00 +12°C° 0 mm 2 mps 771 mmHg 36%
    12:00 +12°C° 0 mm 3 mps 770 mmHg 35%
    13:00 +13°C° 0 mm 3 mps 770 mmHg 34%
    14:00 +13°C° 0 mm 3 mps 769 mmHg 38%
    15:00 +12°C° 0 mm 4 mps 769 mmHg 43%
    16:00 +12°C° 0 mm 4 mps 769 mmHg 47%
    17:00 +11°C° 0 mm 3 mps 769 mmHg 51%
    18:00 +9°C° 0 mm 3 mps 769 mmHg 55%
    19:00 +8°C° 0 mm 2 mps 769 mmHg 59%
    20:00 +8°C° 0 mm 2 mps 769 mmHg 59%
    21:00 +8°C° 0 mm 2 mps 769 mmHg 60%
    22:00 +8°C° 0 mm 2 mps 769 mmHg 60%
    23:00 +9°C° 0 mm 1 mps 769 mmHg 61%

    24 February, Monday

    Time Temperature Precipitation Wind Pressure Humidity
    00:00 +8°C° 0 mm 1 mps 768 mmHg 61%
    01:00 +8°C° 0 mm 1 mps 768 mmHg 61%
    02:00 +8°C° 0 mm 1 mps 767 mmHg 62%
    03:00 +8°C° 0 mm 1 mps 767 mmHg 62%
    04:00 +8°C° 0 mm 1 mps 767 mmHg 62%
    05:00 +8°C° 0 mm 1 mps 766 mmHg 63%
    06:00 +8°C° 0 mm 1 mps 766 mmHg 64%
    07:00 +8°C° 0 mm 1 mps 766 mmHg 65%
    08:00 +9°C° 0 mm 2 mps 766 mmHg 62%
    09:00 +12°C° 0 mm 2 mps 765 mmHg 59%
    10:00 +14°C° 0 mm 2 mps 765 mmHg 56%
    11:00 +15°C° 0 mm 2 mps 765 mmHg 56%
    12:00 +16°C° 0 mm 3 mps 765 mmHg 57%
    13:00 +15°C° 0 mm 4 mps 764 mmHg 58%
    14:00 +15°C° 0 mm 4 mps 764 mmHg 61%
    15:00 +15°C° 0 mm 5 mps 764 mmHg 63%
    16:00 +14°C° 0 mm 5 mps 764 mmHg 65%
    17:00 +13°C° 0 mm 5 mps 764 mmHg 70%
    18:00 +10°C° 0 mm 5 mps 765 mmHg 75%
    19:00 +9°C° 0 mm 5 mps 765 mmHg 79%
    20:00 +9°C° 0 mm 5 mps 766 mmHg 80%
    21:00 +10°C° 0 mm 4 mps 766 mmHg 80%
    22:00 +8°C° 0 mm 4 mps 766 mmHg 80%
    23:00 +8°C° 0 mm 4 mps 766 mmHg 78%
    Show more